Regional Weather Roundup
Issued by NWS Albany, NY

Home | Current Version | Previous Version | Text Only | Print | Product List | Glossary On
Versions: 1 2 3 4 5 6 7 8 9 10 11 12 13 14 15 16 17 18 19 20 21 22 23 24 25 26 27 28 29 30 31 32 33 34 35 36 37 38 39 40 41 42 43 44 45 46 47 48 49 50
000
ASUS41 KALY 300810
RWRALY

NEW YORK STATE HOURLY WEATHER ROUNDUP
NATIONAL WEATHER SERVICE ALBANY NY
400 AM EDT TUE JUN 30 2015

NOTE: "FAIR" INDICATES FEW OR NO CLOUDS BELOW 12,000 FEET WITH NO
SIGNIFICANT WEATHER AND/OR NO OBSTRUCTIONS TO VISIBILITY.

NYZ032-033-038>043-046>054-057>066-NYZ062>081-300900-
EAST


CITY           SKY/WX    TMP DP  RH WIND       PRES   REMARKS
ALBANY         PTCLDY    60  56  86 CALM      29.96S
GLENS FALLS    MOCLDY    58  55  90 CALM      29.96R
POUGHKEEPSIE   CLOUDY    63  59  87 CALM      29.95R
NEWBURGH       CLOUDY    64  63  94 CALM      29.96F
MONTGOMERY     CLOUDY    63  61  93 N3        29.95F
WHITE PLAINS   PTCLDY    62  59  90 CALM      29.96S
ISLIP          CLEAR     67  63  87 S5        29.95S
NEW YORK CITY  PTCLDY    71  57  61 CALM      29.95S
CENTRAL PARK   CLEAR     70  57  63 CALM      29.98S
$$

NYZ005>009-017-018-044>046-055-056-300900-
CENTRAL


CITY           SKY/WX    TMP DP  RH WIND       PRES   REMARKS
FULTON         PTCLDY    58  54  86 CALM      29.91F
SYRACUSE       MOCLDY    56  55  97 E5        29.92F
ROME           MOCLDY    54  52  93 CALM      29.96S
ELMIRA         LGT RAIN  62  60  93 NE6       29.91F
BINGHAMTON     CLOUDY    60  57  89 SE5       29.95F
MONTICELLO     CLOUDY    57  57 100 SE3       29.99R
$$

NYZ026>034-041>043-300900-
NORTH


CITY           SKY/WX    TMP DP  RH WIND       PRES   REMARKS
WATERTOWN      CLEAR     50  49  96 CALM      29.91F
FORT DRUM      NOT AVBL
MASSENA        CLEAR     54  52  93 CALM      29.92S
SARANAC LAKE   FOG       44  43  96 CALM      29.96S VSB 1/2
PLATTSBURGH    PTCLDY    55  53  93 SW5       29.93R
$$

NYZ001>004-010>016-019>021-300900-
WEST


CITY           SKY/WX    TMP DP  RH WIND       PRES   REMARKS
NIAGARA FALLS  CLOUDY    61  58  90 CALM      29.85F
BUFFALO        CLOUDY    65  56  72 SE7       29.86F
DUNKIRK        CLOUDY    63  58  83 E6        29.85F
JAMESTOWN      CLOUDY    57  54  88 E3        29.87F
WELLSVILLE     LGT RAIN  59  56  89 SE8       29.93S
ROCHESTER      CLOUDY    62  58  86 NE3       29.89F
PENN YAN       CLOUDY    62  60  93 SW7       29.92S
$$

             KEY
       WCI = WIND CHILL INDEX
       VSB = VISIBILITY
       HX  = HEAT INDEX
$$



USA.gov is the U.S. government's official web portal to all federal, state and local government web resources and services.